Location: Dead Woman Crossing
(43.5369°N, 106.3228°W)
Time: 19:01:56
(UTC+00:00)

M-CUBED/EXP-1 PRIME - Pass Details

Date: 03 July 2022
Orbit: 422 x 631 km, 101.7° (Epoch: 17 August)

Event Time Altitude Azimuth Distance (km) Brightness Sun altitude
Exits shadow 07:39:45 24° 77° (ENE) 953 ? -23.2°
Maximum altitude 07:40:11 25° 63° (ENE) 936 ? -23.1°
Drops below altitude 10° 07:42:59 10° 7° (N) 1,593 ? -23.1°
Sets 07:45:18 0° 354° (N) 2,504 ? -23.0°
